Overview Statistics Trail Chart Weather Telemetry Raw packets
 

This is the latest recevied weather packets stored in our database for station/object N0KWA. If no packets are shown the sender has not sent any weather packets the latest 10 day(s).

<< 46 47 48 49 50 51 52 >>
Time Temp. Humidity Pressure Rain* Wind** Luminosity Snow
1788122174 31.11° C 78% 1017.7 hPa 0 mm - 32 W/m² -
1788121868 30.56° C 77% 1018 hPa 0 mm - 39 W/m² -
1788121568 30.56° C 78% 1017.8 hPa 0 mm - 33 W/m² -
1788121263 30.56° C 78% 1017.9 hPa 0 mm - 65 W/m² -
1788120963 30.56° C 78% 1018.1 hPa 0 mm - 259 W/m² -
1788120658 31.11° C 76% 1018.1 hPa 0 mm - 116 W/m² -
1788120353 31.67° C 78% 1018.2 hPa 0 mm - 13 W/m² -
1788120052 31.67° C 76% 1018.1 hPa 0 mm - 41 W/m² -
1788119748 31.67° C 75% 1018.2 hPa 0 mm - 35 W/m² -
1788119445 31.11° C 75% 1018.3 hPa 0 mm - 41 W/m² -
1788119145 31.11° C 75% 1018.2 hPa 0 mm - 16 W/m² -
1788118845 31.11° C 79% 1018.3 hPa 0 mm - 111 W/m² -
1788118544 31.11° C 78% 1018.6 hPa 0 mm - 28 W/m² -
1788118239 31.11° C 80% 1018.7 hPa 0 mm - 28 W/m² -
1788117935 31.11° C 80% 1018.8 hPa 0 mm - 30 W/m² -
1788117630 31.11° C 80% 1018.7 hPa 0 mm - 29 W/m² -
1788117325 30.56° C 79% 1018.7 hPa 0 mm - 32 W/m² -
1788117020 30.56° C 78% 1018.6 hPa 0 mm - 33 W/m² -
1788116715 30° C 81% 1018.9 hPa 0 mm - 32 W/m² -
1788116411 30° C 85% 1018.9 hPa 0 mm - 32 W/m² -
1788116104 28.89° C 90% 1018.9 hPa 0 mm - 37 W/m² -
1788115799 28.33° C 92% 1019 hPa 0 mm - 37 W/m² -
1788115499 27.78° C 93% 1019.1 hPa 0 mm - 56 W/m² -
1788115188 27.78° C 92% 1019 hPa 0 mm - 119 W/m² -
1788114888 27.78° C 91% 1019.2 hPa 0 mm - 29 W/m² -

* Rain latest hour (hover to see other rain measurements)
** Current wind speed in m/s (hover to see current wind gust speed)